Regional Weather Roundup
Issued by NWS

Home | Current Version | Previous Version | Graphics & Text | Print | Product List | Glossary On
Versions: 1 2 3 4 5 6 7 8 9 10 11 12 13 14 15 16 17 18 19 20 21 22 23 24 25 26 27 28 29 30 31 32 33 34 35 36 37 38 39 40 41 42 43 44 45 46 47 48 49 50
000
ASUS43 KIND 291709
RWRIN

WEATHER ROUNDUP FOR INDIANA
NATIONAL WEATHER SERVICE INDIANAPOLIS IN
100 PM EDT MON JUN 29 2015

NOTE: "FAIR" INDICATES FEW OR NO CLOUDS BELOW 12,000 FEET WITH NO
SIGNIFICANT WEATHER AND/OR OBSTRUCTIONS TO VISIBILITY.

* - STATION DOES NOT REPORT WEATHER SUCH AS PRECIPITATION OR FOG.

+ - STATION NOT QUALITY CONTROLLED BY THE NATIONAL WEATHER SERVICE.
    USE DATA WITH CAUTION...ESPECIALLY DEWPOINT AND RELATIVE
    HUMIDITY OBSERVATIONS.

INZ001>003-010>013-019-020-291800-
NORTHWEST INDIANA

CITY           SKY/WX    TMP DP  RH WIND       PRES   REMARKS
GARY /AIRPORT/ PTSUNNY  N/A N/A N/A CALM      29.82S
KNOX *+        CLOUDY    64  64 100 NE3       29.82S
LA PORTE +     DRIZZLE   67  67 100 SE3       29.84S
MICHIGAN CITY+ CLOUDY    64  64 100 SE3       29.84R
MONTICELLO +   CLOUDY    69  64  85 S3        29.81R
RENSSELAER +   CLOUDY    70  64  83 CALM      29.82S
VALPARAISO     CLOUDY    66  64  93 E5        29.83S

$$

LMZ046-743>745-291800-
SOUTHERN LAKE MICHIGAN

STATION/POSITION TIME  TEMP    WIND        PRES    WAVE
                       AIR SEA DIR/SP/G            HT
                 (UTC) (F)     (DEG/KT/KT) (MB)    (FT)
BURNS HARBOR     1700   66      30/  7/ 12 1010.5S
MICHIGAN CITY    1700   65     110/  6/  9   N/A
5NW MICH CITY    1700   65 64  130/  4/  4   N/A     0

$$

INZ004-005-014>016-021>024-291800-
NORTH CENTRAL INDIANA

CITY           SKY/WX    TMP DP  RH WIND       PRES   REMARKS
ELKHART        CLOUDY    66  59  77 SE12      29.85R
GOSHEN         CLOUDY    67  60  78 SE9       29.85R
LOGANSPORT +   PTSUNNY   72  61  68 E6        29.82S
PERU/GRISSOM   CLOUDY    69  62  80 E5        29.81S
ROCHESTER +    CLOUDY    70  64  83 SE6       29.84R
SOUTH BEND     RAIN      66  63  90 SE8       29.85R FOG
WARSAW +         N/A     64  61  88 E10       29.85R

$$

INZ006>009-017-018-025>027-291800-
NORTHEAST INDIANA

CITY           SKY/WX    TMP DP  RH WIND       PRES   REMARKS
ANGOLA *+      MOSUNNY   70  59  68 SE13      29.86S
AUBURN +       CLOUDY    64  55  72 SE7       29.87S
FORT WAYNE     CLOUDY    63  59  87 E10       29.86R
HUNTINGTON +   CLOUDY    64  60  88 SE5       29.84R

$$

INZ028-029-035-036-043>045-051>053-291800-
WEST CENTRAL INDIANA

CITY           SKY/WX    TMP DP  RH WIND       PRES   REMARKS
CRAWFORDSVL +  CLOUDY    65  62  89 CALM      29.82R
GREENCASTLE +  CLOUDY    64  63  94 CALM      29.82R FOG
LAFAYETTE      PTSUNNY   71  63  75 E3        29.80R
TERRE HAUTE    CLOUDY    74  67  78 NW8       29.80S

$$

INZ030>032-037>040-046>048-054>057-064-065-291800-
CENTRAL INDIANA

CITY           SKY/WX    TMP DP  RH WIND       PRES   REMARKS
ANDERSON       CLOUDY    68  57  68 SE6       29.83S
CP ATTERBURY + LGT RAIN  68  64  88 CALM      29.81S
COLUMBUS       CLOUDY    68  64  88 SW3       29.81R FOG
FRANKFORT +    CLOUDY    69  65  89 CALM      29.83S
GREENWOOD *+   CLOUDY    66  63  88 CALM      29.82R
INDIANAPOLIS   DRIZZLE   68  64  87 CALM      29.80S FOG
-EAGLE CREEK   CLOUDY    66  63  90 CALM      29.81R
KOKOMO *+      CLOUDY    68  61  77 SE7       29.81S
MARION +       CLOUDY    66  60  81 SE5       29.83S
MT COMFORT *+  CLOUDY    66 N/A N/A S3        29.82S
SHELBYVILLE    CLOUDY    69  65  86 SW3       29.80S FOG
ZIONSVILLE +   CLOUDY    68  61  77 CALM      29.82R

$$

INZ033-034-041-042-049-050-058-059-291800-
EAST CENTRAL INDIANA

CITY           SKY/WX    TMP DP  RH WIND       PRES   REMARKS
MUNCIE         CLOUDY    67  60  78 SE7       29.82S

$$

INZ060-061-067>069-081>083-085>088-291800-
SOUTHWEST INDIANA

CITY           SKY/WX    TMP DP  RH WIND       PRES   REMARKS
EVANSVILLE     PTSUNNY   81  68  64 W10       29.83S
HUNTINGBURG *+ PTSUNNY   79  68  69 W15       29.83S
WASHINGTON +   CLOUDY    74  65  74 W7        29.81S

$$

INZ062-063-066-070>080-084-089>092-291800-
SOUTH CENTRAL AND SOUTHEAST INDIANA

CITY           SKY/WX    TMP DP  RH WIND       PRES   REMARKS
BLOOMINGTON    PTSUNNY   74  67  78 W9        29.81R
MADISON *+     CLOUDY    73  64  73 SW8       29.84F
NORTH VERNON + CLOUDY    75  73  94 SW12      29.82S
SEYMOUR +      CLOUDY    75  68  78 SW9       29.81S

$$



USA.gov is the U.S. government's official web portal to all federal, state and local government web resources and services.